Location: Unspecified
(0.0000°N, 0.0000°E)
Time: 21:09:04
(UTC+00:00)

CZ-3C DEB (VEB) - Pass Details

Date: 08 March 2026
Orbit: 224 x 25513 km, 21.0° (Epoch: 10 April)

Event Time Altitude Azimuth Distance (km) Brightness Sun altitude
Rises 00:15:55 0° 291° (WNW) 8,586 ? -84.9°
Reaches altitude 10° 00:20:10 10° 295° (WNW) 8,768 ? -84.5°
Enters shadow 00:40:32 41° 313° (NW) 11,351 ? -81.1°
Exits shadow 01:16:31 59° 334° (NNW) 16,917 ? -72.9°
Maximum altitude 06:03:25 85° 221° (SW) 14,885 ? -1.8°
Drops below altitude 10° 06:57:39 10° 119° (ESE) 6,771 ? 11.7°
Sets 07:00:28 0° 117° (ESE) 6,932 ? 12.4°
